sat.trackr.live / text

‹ back to catalog

LEMUR-2-TEODOR

NORAD 66768 · 2025-276DG

PAYLOAD ACTIVE UNKNOWN

§ Identity

Operator
Country
US
Launch date
2025-11-28
Launch site
AFWTR
Launch vehicle
Mass (kg)
RCS (m²)

Purposes: earth_obs

External: N2YO · Heavens-Above · Gunter

§ Orbital elements

Epoch: 2026-05-25T03:41:50.934336Z

Period
94.69 min
Inclination
97.4154°
Eccentricity
0.0001324
Mean motion
15.20755166 rev/d
Perigee alt
502.7 km
Apogee alt
504.5 km
Semi-major
6,881.7 km
B*
2.5844e-4
RAAN
219.2804°
Arg perigee
127.4540°
Mean anomaly
232.6816°
Rev number
2,694

§ Raw data

LEMUR-2-TEODOR1 66768U 25276DG  26145.15406174  .00005622  00000+0  25844-3 0  99912 66768  97.4154 219.2804 0001324 127.4540 232.6816 15.20755166 26941

JSON: /api/v1/satellites/66768 · /tle

For live sub-satellite position, see the globe view (requires WebGL).

§ Visibility from observer

Set your observer location to see the next 7 days of passes ≥ 10°. The values pass through the URL so the page stays shareable.

No JS? Fill the form by hand. The geolocation button needs JavaScript.